TimeEDT,TemperatureF,Dew PointF,Humidity,Sea Level PressureIn,VisibilityMPH,Wind Direction,Wind SpeedMPH,Gust SpeedMPH,PrecipitationIn,Events,Conditions,WindDirDegrees,DateUTC
12:25 AM,66.2,64.4,94,29.96,2.0,WNW,4.6,-,N/A,,Clear,290,2013-09-12 04:25:00
12:39 AM,66.2,64.4,94,29.96,0.8,Calm,Calm,-,N/A,,Clear,0,2013-09-12 04:39:00
12:53 AM,66.9,64.9,93,29.94,0.8,Calm,Calm,-,N/A,,Mist,0,2013-09-12 04:53:00
1:17 AM,64.4,64.4,100,29.96,0.2,Calm,Calm,-,N/A,Fog,Fog,0,2013-09-12 05:17:00
1:34 AM,66.2,64.4,94,29.96,0.8,Calm,Calm,-,N/A,,Mist,0,2013-09-12 05:34:00
1:42 AM,66.2,64.4,94,29.96,1.8,Calm,Calm,-,N/A,,Mostly Cloudy,0,2013-09-12 05:42:00
1:47 AM,66.2,64.4,94,29.96,3.0,Calm,Calm,-,N/A,,Mostly Cloudy,0,2013-09-12 05:47:00
1:53 AM,66.9,64.9,93,29.94,2.5,Calm,Calm,-,N/A,,Mostly Cloudy,0,2013-09-12 05:53:00
1:55 AM,66.2,64.4,94,29.95,1.5,Calm,Calm,-,N/A,,Scattered Clouds,0,2013-09-12 05:55:00
1:57 AM,66.2,64.4,94,29.95,0.8,Calm,Calm,-,N/A,,Mist,0,2013-09-12 05:57:00
2:08 AM,64.4,64.4,100,29.96,0.2,NNW,4.6,-,N/A,Fog,Fog,340,2013-09-12 06:08:00
2:17 AM,66.2,64.4,94,29.96,1.0,Calm,Calm,-,N/A,,Mostly Cloudy,0,2013-09-12 06:17:00
2:34 AM,66.2,64.4,94,29.96,2.0,SSW,5.8,-,N/A,,Mostly Cloudy,200,2013-09-12 06:34:00
2:40 AM,66.2,64.4,94,29.95,3.0,SW,3.5,-,N/A,,Mostly Cloudy,230,2013-09-12 06:40:00
2:49 AM,66.2,64.4,94,29.95,1.8,NW,4.6,-,N/A,,Scattered Clouds,310,2013-09-12 06:49:00
2:53 AM,66.0,64.9,96,29.93,0.8,WNW,3.5,-,N/A,,Mist,300,2013-09-12 06:53:00
3:22 AM,66.2,64.4,94,29.94,0.2,Calm,Calm,-,0.01,Fog,Fog,0,2013-09-12 07:22:00
3:48 AM,64.4,62.6,94,29.94,0.5,Calm,Calm,-,0.01,Fog,Fog,0,2013-09-12 07:48:00
3:49 AM,64.9,63.0,93,29.92,0.5,Calm,Calm,-,0.01,Fog,Fog,0,2013-09-12 07:49:00
3:56 AM,66.2,64.4,94,29.93,1.2,Calm,Calm,-,N/A,,Partly Cloudy,0,2013-09-12 07:56:00
4:00 AM,66.2,64.4,94,29.93,0.8,Calm,Calm,-,N/A,,Mist,0,2013-09-12 08:00:00
4:06 AM,64.4,62.6,94,29.93,0.2,Calm,Calm,-,N/A,Fog,Fog,0,2013-09-12 08:06:00
4:43 AM,64.4,62.6,94,29.92,0.2,Calm,Calm,-,N/A,Fog,Fog,0,2013-09-12 08:43:00
4:53 AM,64.0,63.0,96,29.91,0.2,Calm,Calm,-,N/A,Fog,Fog,0,2013-09-12 08:53:00
5:53 AM,63.0,62.1,97,29.90,0.2,Calm,Calm,-,N/A,Fog,Fog,0,2013-09-12 09:53:00
6:53 AM,63.0,62.1,97,29.90,0.2,Calm,Calm,-,N/A,Fog,Fog,0,2013-09-12 10:53:00
7:53 AM,64.9,63.0,93,29.90,0.2,Calm,Calm,-,N/A,Fog,Fog,0,2013-09-12 11:53:00
8:21 AM,64.4,64.4,100,29.90,0.2,Calm,Calm,-,N/A,Fog,Fog,0,2013-09-12 12:21:00
8:40 AM,66.2,64.4,94,29.90,0.8,Calm,Calm,-,N/A,,Overcast,0,2013-09-12 12:40:00
8:53 AM,66.9,64.9,93,29.88,2.0,Calm,Calm,-,N/A,,Overcast,0,2013-09-12 12:53:00
9:00 AM,66.2,64.4,94,29.89,4.0,Calm,Calm,-,N/A,,Overcast,0,2013-09-12 13:00:00
9:49 AM,71.6,66.2,83,29.88,4.0,Calm,Calm,-,N/A,,Overcast,0,2013-09-12 13:49:00
9:53 AM,71.1,66.9,87,29.87,4.0,Calm,Calm,-,N/A,,Overcast,0,2013-09-12 13:53:00
10:53 AM,75.0,69.1,82,29.85,5.0,South,3.5,-,N/A,,Haze,190,2013-09-12 14:53:00
11:17 AM,75.2,69.8,83,29.86,5.0,Calm,Calm,-,N/A,,Haze,0,2013-09-12 15:17:00
11:53 AM,77.0,69.1,76,29.83,5.0,SW,5.8,-,N/A,,Haze,220,2013-09-12 15:53:00
12:46 PM,78.8,69.8,74,29.82,3.0,WSW,8.1,-,0.01,Rain,Heavy Rain,240,2013-09-12 16:46:00
12:53 PM,79.0,71.1,77,29.80,5.0,South,5.8,-,0.01,Rain,Light Rain,190,2013-09-12 16:53:00
1:00 PM,80.6,69.8,70,29.81,6.0,South,6.9,-,0.00,,Haze,180,2013-09-12 17:00:00
1:46 PM,80.6,66.2,61,29.79,9.0,WSW,9.2,-,0.00,Thunderstorm,Mostly Cloudy,250,2013-09-12 17:46:00
1:53 PM,79.0,66.0,64,29.78,9.0,NW,13.8,19.6,0.00,Thunderstorm,Thunderstorm,320,2013-09-12 17:53:00
2:05 PM,75.2,60.8,61,29.78,5.0,NW,24.2,39.1,0.02,Rain-Thunderstorm,Light Thunderstorms and Rain,310,2013-09-12 18:05:00
2:53 PM,-9999,-9999,N/A,29.79,7.0,WSW,6.9,-,0.03,Rain-Thunderstorm,Light Rain,250,2013-09-12 18:53:00
3:00 PM,-9999,-9999,N/A,29.78,1.8,West,9.2,-,0.07,Rain-Thunderstorm,Heavy Rain,280,2013-09-12 19:00:00
3:10 PM,-9999,-9999,N/A,29.77,3.0,Calm,Calm,-,0.09,Rain-Thunderstorm,Light Rain,0,2013-09-12 19:10:00
3:36 PM,-9999,-9999,N/A,29.77,7.0,WSW,4.6,-,0.09,Rain,Light Rain,240,2013-09-12 19:36:00
3:53 PM,-9999,-9999,N/A,29.77,3.0,WSW,5.8,-,0.11,Rain-Thunderstorm,Light Thunderstorms and Rain,240,2013-09-12 19:53:00
4:02 PM,-9999,-9999,N/A,29.77,2.5,SSW,4.6,-,0.03,Rain-Thunderstorm,Thunderstorms and Rain,200,2013-09-12 20:02:00
4:20 PM,-9999,-9999,N/A,29.75,3.0,Calm,Calm,-,0.07,Rain-Thunderstorm,Rain,0,2013-09-12 20:20:00
4:32 PM,-9999,-9999,N/A,29.75,5.0,Calm,Calm,-,0.07,Rain,Light Rain,0,2013-09-12 20:32:00
4:48 PM,-9999,-9999,N/A,29.76,7.0,Calm,Calm,-,0.07,Rain,Light Rain,0,2013-09-12 20:48:00
4:53 PM,-9999,-9999,N/A,29.76,6.0,North,3.5,-,0.07,,Haze,350,2013-09-12 20:53:00
4:57 PM,68.0,66.2,94,29.76,6.0,Calm,Calm,-,N/A,,Overcast,0,2013-09-12 20:57:00
5:07 PM,68.0,66.2,94,29.76,9.0,West,4.6,-,N/A,,Mostly Cloudy,270,2013-09-12 21:07:00
5:53 PM,70.0,64.0,81,29.74,10.0,Calm,Calm,-,0.00,Rain,Light Rain,0,2013-09-12 21:53:00
6:53 PM,68.0,64.9,90,29.75,10.0,Calm,Calm,-,0.01,,Scattered Clouds,0,2013-09-12 22:53:00
7:41 PM,66.2,64.4,94,29.77,8.0,Calm,Calm,-,N/A,,Mostly Cloudy,0,2013-09-12 23:41:00
7:53 PM,66.9,64.0,90,29.75,8.0,Calm,Calm,-,N/A,,Mostly Cloudy,0,2013-09-12 23:53:00
8:10 PM,66.2,62.6,88,29.76,5.0,West,3.5,-,N/A,,Scattered Clouds,280,2013-09-13 00:10:00
8:53 PM,66.0,64.0,93,29.74,8.0,West,3.5,-,N/A,,Mostly Cloudy,270,2013-09-13 00:53:00
9:22 PM,66.2,64.4,94,29.75,6.0,WSW,4.6,-,0.00,Rain,Light Rain,240,2013-09-13 01:22:00
9:53 PM,66.0,64.0,93,29.75,9.0,Calm,Calm,-,0.00,Rain,Light Rain,0,2013-09-13 01:53:00
10:53 PM,64.9,62.1,90,29.75,10.0,West,5.8,-,0.01,Rain,Light Rain,260,2013-09-13 02:53:00
11:53 PM,63.0,60.1,90,29.75,10.0,SW,3.5,-,0.00,,Clear,220,2013-09-13 03:53:00